sat.trackr.live / text

‹ back to catalog

STARLINK-35778

NORAD 66973 · 2025-288Q

PAYLOAD ACTIVE UNKNOWN

§ Identity

Operator
Country
US
Launch date
2025-12-08
Launch site
AFETR
Launch vehicle
Mass (kg)
RCS (m²)

Purposes: comms

External: N2YO · Heavens-Above · Gunter

§ Orbital elements

Epoch: 2026-05-24T22:42:08.004672Z

Period
94.27 min
Inclination
43.0015°
Eccentricity
0.0002428
Mean motion
15.27594099 rev/d
Perigee alt
481.3 km
Apogee alt
484.7 km
Semi-major
6,861.1 km
B*
7.1732e-4
RAAN
312.4712°
Arg perigee
286.7089°
Mean anomaly
73.3496°
Rev number
2,695

§ Raw data

STARLINK-357781 66973U 25288Q   26144.94592598  .00019538  00000+0  71732-3 0  99922 66973  43.0015 312.4712 0002428 286.7089  73.3496 15.27594099 26957

JSON: /api/v1/satellites/66973 · /tle

For live sub-satellite position, see the globe view (requires WebGL).

§ Visibility from observer

Set your observer location to see the next 7 days of passes ≥ 10°. The values pass through the URL so the page stays shareable.

No JS? Fill the form by hand. The geolocation button needs JavaScript.